Location: Taupo
(38.6830°S, 176.0830°E)
Time: 13:22:43
(UTC+13:00)

Meteor 1-27 - Pass Details

Date: 24 January 2019
Orbit: 839 x 892 km, 81.2° (Epoch: 16 February)

Event Time Altitude Azimuth Distance (km) Brightness Sun altitude
Rises 21:02:32 0° 351° (N) 3,461 7.2 -5.2°
Reaches altitude 10° 21:04:56 10° 349° (N) 2,537 6.5 -5.6°
Maximum altitude 21:10:44 83° 262° (W) 908 4.5 -6.6°
Drops below altitude 10° 21:16:41 10° 173° (S) 2,590 7.1 -7.6°
Sets 21:19:10 0° 171° (S) 3,538 7.8 -8.0°
